Regional Weather Roundup
Issued by NWS

Home | Current Version | Previous Version | Text Only | Print | Product List | Glossary Off
Versions: 1 2 3 4 5 6 7 8 9 10 11 12 13 14 15 16 17 18 19 20 21 22 23 24 25 26 27 28 29 30 31 32 33 34 35 36 37 38 39 40 41 42 43 44 45 46 47 48 49 50

000
ASUS43 KTOP 191208
RWRKS

WEATHER ROUNDUP FOR KANSAS
NATIONAL WEATHER SERVICE GOODLAND KS
600 AM CST SUN NOV 19 2017

NOTE:  "FAIR" INDICATES FEW OR NO CLOUDS BELOW 12,000 FEET WITH NO
SIGNIFICANT WEATHER AND/OR OBSTRUCTIONS TO VISIBILITY.

KSZ001>006-013>018-027>032-041>047-191300-
NORTHWEST KANSAS

CITY           SKY/WX    TMP DP  RH WIND       PRES   REMARKS
GOODLAND       CLOUDY    23  14  68 SW9       30.20S
6HR MIN TEMP:  21; 6HR MAX TEMP:  26;

HAYS           CLEAR     22  17  81 W7        30.26S
HILL CITY      CLEAR     24  19  81 W8        30.24S
6HR MIN TEMP:  24; 6HR MAX TEMP:  28;

RUSSELL        CLEAR     23  20  88 SW7       30.23F
6HR MIN TEMP:  21; 6HR MAX TEMP:  27;

$$

KSZ061>065-074>080-084>089-191300-
SOUTHWEST KANSAS

CITY           SKY/WX    TMP DP  RH WIND       PRES   REMARKS
DODGE CITY     CLOUDY    26  15  63 SW7       30.27S
6HR MIN TEMP:  24; 6HR MAX TEMP:  30;

ELKHART        CLOUDY    29  19  66 SW12      30.22S WCI  19
GARDEN CITY    CLOUDY    23  14  68 W7        30.26S
6HR MIN TEMP:  18; 6HR MAX TEMP:  25;

GREAT BEND     CLEAR     23  19  85 CALM      30.27S
LIBERAL        CLOUDY    22  15  75 SW6       30.28F
PRATT          CLEAR     26  19  74 W7        30.28S
6HR MIN TEMP:  26; 6HR MAX TEMP:  29;

$$

KSZ066>073-081>083-090>101-191300-
SOUTHEAST KANSAS

CITY           SKY/WX    TMP DP  RH WIND       PRES   REMARKS
CHANUTE        CLEAR     30  26  85 NW3       30.29R
6HR MIN TEMP:  30; 6HR MAX TEMP:  39;

COFFEYVILLE    CLEAR     31  28  89 CALM      30.30R
6HR MIN TEMP:  30; 6HR MAX TEMP:  38;

HUTCHINSON     PTCLDY    25  21  85 NW6       30.26F
6HR MIN TEMP:  24; 6HR MAX TEMP:  33;

MEDICINE LODGE   N/A     23  19  85 N6        30.28F
NEWTON         PTCLDY    30  23  75 NW5       30.27S
PARSONS        CLEAR     27  26  96 CALM      30.30R
6HR MIN TEMP:  26; 6HR MAX TEMP:  35;

WICHITA INTL   CLEAR     28  22  78 CALM      30.28R
6HR MIN TEMP:  27; 6HR MAX TEMP:  37;

WICHITA JABRA  CLEAR     31  25  78 W6        30.27S
6HR MIN TEMP:  31; 6HR MAX TEMP:  37;

WICHITA MCCONL CLEAR     32  23  69 CALM      30.27S
WINFIELD       CLEAR     29  25  85 CALM      30.30R
6HR MIN TEMP:  27; 6HR MAX TEMP:  33;

$$

KSZ007>012-019>026-033>040-048>060-102>105-191300-
NORTHEAST KANSAS

CITY           SKY/WX    TMP DP  RH WIND       PRES   REMARKS
CONCORDIA      CLEAR     30  22  72 W6        30.23F
6HR MIN TEMP:  28; 6HR MAX TEMP:  34;

EMPORIA        CLEAR     28  23  81 NW5       30.28R
6HR MIN TEMP:  28; 6HR MAX TEMP:  34;

LAWRENCE       CLEAR     26  23  88 W7        30.28R
6HR MIN TEMP:  23; 6HR MAX TEMP:  33;

MANHATTAN      CLEAR     23  21  92 CALM      30.28S
6HR MIN TEMP:  21; 6HR MAX TEMP:  32;

MARYSVILLE     CLEAR     25  23  93 S3        30.24F
OLATHE IND     PTCLDY    28  23  81 W3        30.26S
6HR MIN TEMP:  27; 6HR MAX TEMP:  34;

OLATHE EXE     PTCLDY    30  24  78 N5        30.25S
6HR MIN TEMP:  30; 6HR MAX TEMP:  35;

SALINA         PTCLDY    28  22  78 N3        30.27S
6HR MIN TEMP:  25; 6HR MAX TEMP:  34;

TOPEKA BILLARD CLEAR     27  24  89 CALM      30.28R
6HR MIN TEMP:  25; 6HR MAX TEMP:  35;

TOPEKA FORBES  CLEAR     27  22  81 W5        30.27S
6HR MIN TEMP:  26; 6HR MAX TEMP:  34;

$$




USA.gov is the U.S. government's official web portal to all federal, state and local government web resources and services.